Tracking 21076 objects as of 10-Aug-2020
HD Live streaming from Space Station
objects crossing your sky now
Track the most recent launched group of Starlink satellites

IRIDIUM 55


IRIDIUM 55 is no longer on orbit
IRIDIUM 55 is classified as:


NORAD ID: 25272
Int'l Code: 1998-019A
Perigee: N/A
Apogee: N/A
Inclination: N/A
Period: N/A
Semi major axis: N/A
RCS: N/A
Launch date: March 30, 1998
Source: United States (US)
Launch site: AIR FORCE WESTERN TEST RANGE (AFWTR)
Decay date: 2019-03-31
aabbcc
Your satellite tracking list
Your tracking list is empty




NASA's NSSDC Master Catalog

Two Line Element Set (TLE):
1 25272U 98019A   19090.02225584  .15469727 -19946-5  38761-3 0  9996
2 25272  86.6812  13.6058 0074982 116.7376 244.8729 16.34393185 99945
Source of the keplerian elements: AFSPC